Weather History for KOZR - March, 2014

Change the Weather History Date:

Thursday, March 13, 2014

  Actual Average Record
Temperature  
Mean Temperature 48 °F -  
Max Temperature 61 °F 67 °F 82 °F (2003)
Min Temperature 35 °F 45 °F 26 °F (1998)
Degree Days  
Heating Degree Days 18    
Moisture  
Dew Point 28 °F    
Average Humidity 47    
Maximum Humidity 72    
Minimum Humidity 29    
Precipitation  
Precipitation 0.00 in - - ()
Sea Level Pressure  
Sea Level Pressure 30.20 in    
Wind  
Wind Speed 9 mph (NNW)    
Max Wind Speed 18 mph    
Max Gust Speed 24 mph    
Visibility 10 miles    
Events      
Averages and records for this station are not official NWS values.
T = Trace of Precipitation, MM = Missing Value Source: NWS Daily Summary

Daily Weather History Graph

Daily Weather History Graph

Search for Another Location

Airport or City:

Trip Planner

Search our weather history database for the weather conditions in past years. The results will help you decide how hot, cold, wet, or windy it might be!

Date:

Astronomy

Mar. 13, 2014 Rise Set
Actual Time 6:55 AM CDT 6:49 PM CDT
Civil Twilight 6:31 AM CDT 7:13 PM CDT
Nautical Twilight 6:03 AM CDT 7:41 PM CDT
Astronomical Twilight 5:34 AM CDT 8:10 PM CDT
Moon 4:22 PM CDT (3/13) 4:53 AM CDT (3/13)
Length of Visible Light 12h 42m
Length of Day
11h 54m
Waxing Gibbous, 91% of the Moon is Illuminated
Mar 13
Waxing Gibbous
Mar 16
Full
Mar 23
Last Quarter
Mar 30
New
Apr 7
First Quarter

Hourly Weather History & Observations

Time (CDT) Temp. Windchill Dew Point Humidity Pressure Visibility Wind Dir Wind Speed Gust Speed Precip Events Conditions
12:58 AM 43.9 °F 37.9 °F 29.3 °F 57% 30.08 in 10.0 mi NNW 11.5 mph - N/A   Clear
1:58 AM 42.4 °F 35.7 °F 28.9 °F 59% 30.10 in 10.0 mi NW 12.7 mph - N/A   Clear
2:58 AM 41.2 °F 35.5 °F 27.7 °F 59% 30.11 in 10.0 mi NNW 9.2 mph - N/A   Clear
3:58 AM 38.8 °F 35.4 °F 28.0 °F 65% 30.12 in 10.0 mi NW 4.6 mph - N/A   Clear
4:58 AM 37.8 °F - 27.5 °F 67% 30.14 in 10.0 mi NW 2.3 mph - N/A   Clear
5:58 AM 36.1 °F 33.5 °F 27.5 °F 71% 30.17 in 10.0 mi NW 3.5 mph - N/A   Clear
6:58 AM 35.6 °F 32.8 °F 27.3 °F 72% 30.19 in 10.0 mi WNW 3.5 mph - N/A   Clear
7:58 AM 38.3 °F 33.9 °F 29.5 °F 71% 30.22 in 10.0 mi NW 5.8 mph - N/A   Clear
8:58 AM 44.2 °F 38.4 °F 26.6 °F 50% 30.25 in 10.0 mi NNW 11.5 mph - N/A   Clear
9:58 AM 48.0 °F - 25.7 °F 42% 30.25 in 10.0 mi NNW 10.4 mph - N/A   Clear
10:58 AM 51.3 °F - 25.7 °F 37% 30.25 in 10.0 mi NNW 13.8 mph 19.6 mph N/A   Clear
11:58 AM 55.4 °F - 26.6 °F 33% 30.24 in 10.0 mi NNW 18.4 mph 24.2 mph N/A   Clear
11:59 AM 55.4 °F - 26.6 °F 33% 30.23 in 10.0 mi NW 16.1 mph 24.2 mph N/A   Clear
12:17 PM 55.4 °F - 26.6 °F 33% 30.23 in 10.0 mi North 12.7 mph 17.3 mph N/A   Clear
12:58 PM 56.8 °F - 25.9 °F 30% 30.22 in 10.0 mi NNW 10.4 mph 17.3 mph N/A   Clear
1:13 PM 57.2 °F - 26.6 °F 31% 30.21 in 10.0 mi North 13.8 mph 21.9 mph N/A   Clear
1:36 PM 59.0 °F - 26.6 °F 29% 30.20 in 10.0 mi North 11.5 mph 20.7 mph N/A   Clear
1:58 PM 58.8 °F - 27.3 °F 30% 30.20 in 10.0 mi North 12.7 mph 19.6 mph N/A   Clear
2:34 PM 59.0 °F - 26.6 °F 29% 30.18 in 10.0 mi North 13.8 mph 18.4 mph N/A   Clear
2:58 PM 59.7 °F - 27.3 °F 29% 30.19 in 10.0 mi NNW 10.4 mph - N/A   Clear
3:58 PM 60.8 °F - 27.9 °F 29% 30.18 in 10.0 mi NW 11.5 mph 18.4 mph N/A   Clear
4:58 PM 60.4 °F - 28.0 °F 29% 30.18 in 10.0 mi NNW 10.4 mph - N/A   Clear
5:58 PM 59.2 °F - 28.0 °F 31% 30.19 in 10.0 mi NNW 9.2 mph - N/A   Clear
6:58 PM 55.6 °F - 29.1 °F 36% 30.22 in 10.0 mi NNW 4.6 mph - N/A   Clear
7:58 PM 53.4 °F - 29.3 °F 40% 30.24 in 6.0 mi Variable 3.5 mph - N/A   Haze
8:58 PM 46.4 °F 45.2 °F 30.9 °F 55% 30.26 in 10.0 mi NW 3.5 mph - N/A   Clear
9:58 PM 46.0 °F - 33.1 °F 61% 30.27 in 10.0 mi Calm Calm - N/A   Clear
10:58 PM 41.5 °F - 32.9 °F 71% 30.27 in 5.0 mi Calm Calm - N/A   Haze
11:58 PM 41.4 °F 38.4 °F 32.7 °F 71% 30.26 in 5.0 mi NNE 4.6 mph - N/A   Haze